FW2905 Weather Reports


Display with metric or nautical units.
time (UTC)temp
F
wind
direction
speed
MPH
gust
MPH
rain 1hr
in
rain 24hr
in
rain mn
in
humidity
%
barometer
mb
20260905095026 69 29 3.0 5.0 0.00 1.54 0.00 96 1015.1
20260905094539 69 72 2.0 4.0 0.00 1.54 0.00 96 1015.1
20260905094024 69 44 1.0 4.0 0.00 1.54 0.00 96 1015.1
20260905093519 69 62 1.0 3.0 0.00 1.54 0.00 96 1015.1
20260905093039 69 348 1.0 4.0 0.00 1.54 0.00 96 1014.9
20260905092522 69 25 1.0 6.0 0.00 1.54 0.00 96 1014.9
20260905092025 69 57 2.0 6.0 0.00 1.54 0.00 96 1014.9
20260905091539 69 53 2.0 4.0 0.00 1.54 0.00 96 1014.7
20260905091021 69 80 2.0 4.0 0.00 1.54 0.00 96 1014.7
20260905090518 69 36 1.0 3.0 0.00 1.54 0.00 96 1014.6
20260905090108 69 48 1.0 3.0 0.00 1.54 0.00 96 1014.7
20260905085518 69 30 1.0 4.0 0.00 1.56 0.00 96 1014.7
20260905085019 69 56 1.0 5.0 0.00 1.56 0.00 96 1014.6
20260905084539 69 30 2.0 5.0 0.00 1.56 0.00 95 1014.6
20260905084021 69 63 2.0 4.0 0.00 1.56 0.00 96 1014.6
20260905083519 69 30 1.0 3.0 0.00 1.56 0.00 96 1014.6
20260905083044 69 39 2.0 3.0 0.00 1.56 0.00 96 1014.7
20260905082519 69 28 0.0 2.0 0.00 1.56 0.00 96 1014.7
20260905082021 69 32 0.0 3.0 0.00 1.56 0.00 96 1014.6
20260905081551 69 42 1.0 3.0 0.00 1.56 0.00 95 1014.6
20260905081021 69 53 1.0 3.0 0.00 1.56 0.00 96 1014.5
20260905080516 69 352 0.0 2.0 0.00 1.56 0.00 95 1014.6
20260905080037 69 31 0.0 2.0 0.00 1.56 0.00 95 1014.6
20260905075521 69 5 0.0 2.0 0.00 1.56 0.00 95 1014.6
20260905075019 69 345 0.0 3.0 0.00 1.56 0.00 95 1014.7
20260905074544 69 20 2.0 3.0 0.00 1.56 0.00 95 1014.7
20260905074020 69 346 1.0 2.0 0.00 1.56 0.00 95 1014.9
20260905073528 69 360 1.0 3.0 0.00 1.56 0.00 95 1014.9
20260905073042 69 9 1.0 3.0 0.00 1.56 0.00 95 1014.7
20260905072516 69 13 1.0 2.0 0.00 1.56 0.00 95 1014.8
20260905072018 69 31 1.0 3.0 0.00 1.56 0.00 95 1014.8
20260905071540 69 39 1.0 3.0 0.00 1.56 0.00 95 1014.9
20260905071018 69 46 1.0 3.0 0.00 1.56 0.00 95 1014.9
20260905070516 69 52 1.0 3.0 0.00 1.56 0.00 95 1014.8
20260905070046 69 32 1.0 4.0 0.00 1.56 0.00 95 1014.8
20260905065518 69 40 2.0 4.0 0.00 1.75 0.00 95 1014.8
20260905065020 69 350 1.0 3.0 0.00 1.75 0.00 95 1014.9
20260905064539 69 9 1.0 3.0 0.00 1.75 0.00 95 1014.8
20260905064024 69 18 2.0 3.0 0.00 1.75 0.00 95 1014.9
20260905063518 69 29 1.0 3.0 0.00 1.75 0.00 95 1014.9
20260905063042 69 9 1.0 3.0 0.00 1.75 0.00 95 1015.0
20260905062516 69 9 1.0 2.0 0.00 1.75 0.00 95 1015.0
20260905062018 69 15 0.0 2.0 0.00 1.75 0.00 95 1015.1
20260905061541 69 352 1.0 2.0 0.00 1.75 0.00 95 1015.1
20260905061016 69 28 0.0 2.0 0.00 1.75 0.00 95 1015.0
20260905060518 69 0 0.0 2.0 0.00 1.75 0.00 95 1015.0
20260905060039 69 0 0.0 2.0 0.00 1.75 0.00 95 1015.0
20260905055526 69 0 0.0 2.0 0.00 1.89 0.00 95 1015.0
20260905055020 69 348 0.0 2.0 0.00 1.89 0.00 95 1015.0
20260905054539 69 348 1.0 2.0 0.00 1.89 0.00 95 1015.1
20260905054019 69 29 2.0 3.0 0.00 1.89 0.00 95 1015.1
20260905053523 69 19 1.0 3.0 0.00 1.89 0.00 95 1015.2
20260905053036 69 360 2.0 3.0 0.00 1.89 0.00 95 1015.2
20260905052519 69 26 1.0 2.0 0.00 1.89 0.00 95 1015.1
20260905052018 69 360 1.0 4.0 0.00 1.89 0.00 95 1015.1
20260905051541 69 9 1.0 4.0 0.00 1.89 0.00 95 1015.0
20260905051019 69 40 2.0 4.0 0.00 1.89 0.00 95 1014.9
20260905050518 69 24 0.0 1.0 0.00 1.89 0.00 95 1014.9
20260905050037 69 57 0.0 2.0 0.00 1.89 0.00 95 1014.9
20260905045518 69 57 1.0 2.0 0.00 1.92 1.89 95 1014.9
20260905045021 69 49 0.0 2.0 0.00 1.92 1.89 95 1014.8
20260905044538 70 0 0.0 2.0 0.00 1.92 1.89 95 1014.8
20260905044018 70 171 1.0 2.0 0.00 1.92 1.89 95 1014.7
20260905043519 70 168 0.0 2.0 0.00 1.92 1.89 95 1014.7
20260905043035 69 36 1.0 2.0 0.00 1.92 1.89 95 1014.9
20260905042516 69 40 1.0 3.0 0.00 1.92 1.89 95 1014.9
20260905042018 70 0 0.0 3.0 0.00 1.92 1.89 95 1014.9
20260905041548 70 348 2.0 3.0 0.00 1.92 1.89 95 1015.0
20260905041016 70 28 2.0 3.0 0.00 1.92 1.89 94 1014.8
20260905040521 70 53 1.0 3.0 0.00 1.92 1.89 94 1014.6
20260905040040 70 181 1.0 2.0 0.00 1.92 1.89 94 1014.5
20260905035520 70 0 0.0 2.0 0.00 1.92 1.89 94 1014.7
20260905035019 70 181 0.0 2.0 0.00 1.92 1.89 94 1014.7
20260905034547 70 0 0.0 2.0 0.00 1.92 1.89 94 1014.7
20260905034019 70 178 1.0 2.0 0.00 1.92 1.89 94 1014.7
20260905033523 70 0 0.0 2.0 0.00 1.92 1.89 94 1015.0
20260905033037 70 96 0.0 2.0 0.00 1.92 1.89 94 1015.1
20260905032520 70 41 0.0 2.0 0.00 1.92 1.89 94 1015.1
20260905032021 70 65 0.0 2.0 0.00 1.92 1.89 94 1015.1
20260905031540 70 0 0.0 2.0 0.00 1.92 1.89 94 1015.1
20260905031019 70 0 0.0 2.0 0.00 1.92 1.89 94 1015.0
20260905030520 70 0 0.0 2.0 0.00 1.92 1.89 94 1015.1
20260905030037 70 65 0.0 2.0 0.00 1.92 1.89 94 1014.9
20260905025516 70 130 0.0 2.0 0.00 1.92 1.89 94 1014.9
20260905025019 70 0 1.0 2.0 0.00 1.92 1.89 94 1014.7
20260905024540 70 113 0.0 2.0 0.00 1.92 1.89 94 1014.7
20260905024018 70 37 0.0 2.0 0.00 1.92 1.89 94 1015.0
20260905023518 70 42 1.0 2.0 0.00 1.92 1.89 93 1014.9
20260905023039 70 0 0.0 2.0 0.00 1.92 1.89 93 1014.9
20260905022517 70 80 0.0 2.0 0.00 1.92 1.89 93 1014.9
20260905022021 70 118 1.0 4.0 0.00 1.92 1.89 93 1014.7
20260905021538 70 163 1.0 4.0 0.00 1.92 1.89 93 1014.9
20260905021018 70 157 1.0 2.0 0.00 1.92 1.89 93 1014.9
20260905020521 70 0 0.0 2.0 0.00 1.92 1.89 93 1015.2
20260905020040 70 0 0.0 2.0 0.00 1.92 1.89 93 1015.1
20260905015523 70 121 0.0 2.0 0.00 1.92 1.89 93 1015.2
20260905015020 70 141 1.0 2.0 0.00 1.92 1.89 92 1015.0
20260905014540 70 0 0.0 2.0 0.00 1.92 1.89 92 1015.2
20260905014021 70 0 0.0 2.0 0.00 1.92 1.89 92 1015.1
20260905013522 71 63 0.0 0.0 0.00 1.92 1.89 92 1015.2
20260905013105 71 0 0.0 0.0 0.00 1.92 1.89 91 1015.1
20260905012517 71 0 0.0 0.0 0.00 1.92 1.89 91 1015.0
20260905012017 71 0 0.0 0.0 0.00 1.92 1.89 91 1015.0
20260905011540 71 0 0.0 0.0 0.00 1.92 1.89 90 1015.0
20260905011024 72 0 0.0 2.0 0.00 1.92 1.89 91 1014.8
20260905010519 71 0 0.0 2.0 0.00 1.92 1.89 90 1014.7
20260905010045 72 60 0.0 2.0 0.00 1.92 1.89 90 1014.5
20260905005519 72 76 0.0 2.0 0.00 1.92 1.89 90 1014.4
20260905005019 72 0 0.0 2.0 0.00 1.92 1.89 89 1014.3
20260905004556 72 0 0.0 2.0 0.00 1.92 1.89 89 1014.2
20260905004019 72 85 0.0 2.0 0.00 1.92 1.89 89 1014.3
20260905003521 72 61 1.0 2.0 0.00 1.92 1.89 89 1014.3
20260905003043 72 40 1.0 2.0 0.00 1.92 1.89 88 1014.4
20260905002519 73 71 0.0 2.0 0.00 1.92 1.89 88 1014.4
20260905002022 73 62 1.0 2.0 0.00 1.92 1.89 88 1014.5
20260905001546 73 45 1.0 2.0 0.00 1.92 1.89 87 1014.6
20260905001022 73 79 0.0 2.0 0.00 1.92 1.89 87 1014.4
20260905000523 73 54 0.0 2.0 0.00 1.92 1.89 87 1014.4
20260905000048 73 59 1.0 2.0 0.00 1.92 1.89 87 1014.4
20260904235520 73 49 1.0 2.0 0.00 1.92 1.89 87 1014.4
20260904235019 74 46 0.0 2.0 0.00 1.92 1.89 86 1014.4
20260904234542 73 51 1.0 4.0 0.00 1.92 1.89 86 1014.4
20260904234017 74 53 1.0 4.0 0.00 1.92 1.89 86 1014.2
20260904233520 74 144 1.0 4.0 0.00 1.92 1.89 86 1014.2
20260904233042 74 98 2.0 4.0 0.00 1.92 1.89 85 1013.9
20260904232521 74 107 1.0 5.0 0.00 1.92 1.89 86 1013.8
20260904232016 75 54 1.0 5.0 0.00 1.92 1.89 85 1013.7
20260904231542 75 71 1.0 5.0 0.00 1.92 1.89 85 1013.8
20260904231023 75 79 1.0 4.0 0.00 1.92 1.89 85 1013.9
20260904230525 75 119 1.0 4.0 0.00 1.92 1.89 85 1014.0
20260904230038 76 122 1.0 4.0 0.00 1.92 1.89 84 1014.0
20260904225518 76 107 2.0 4.0 0.00 1.92 1.89 84 1014.0
20260904225020 76 61 2.0 3.0 0.00 1.92 1.89 84 1013.8
20260904224537 76 117 1.0 6.0 0.00 1.92 1.89 84 1013.9
20260904224021 76 122 1.0 6.0 0.00 1.92 1.89 84 1013.9
20260904223521 77 133 2.0 4.0 0.00 1.92 1.89 83 1013.7
20260904223036 77 130 2.0 5.0 0.00 1.92 1.89 83 1013.8
20260904222516 77 75 1.0 5.0 0.00 1.92 1.89 83 1013.7
20260904222019 77 98 1.0 4.0 0.00 1.92 1.89 83 1013.7
20260904221535 77 111 1.0 4.0 0.00 1.92 1.89 82 1013.6
20260904221019 78 138 2.0 4.0 0.00 1.92 1.89 81 1013.6
20260904220516 79 152 1.0 4.0 0.00 1.92 1.89 81 1013.5
20260904220040 79 86 2.0 6.0 0.00 1.92 1.89 78 1013.6
20260904215517 80 101 2.0 6.0 0.00 1.92 1.89 78 1013.6
20260904215018 81 136 2.0 4.0 0.00 1.92 1.89 78 1013.6
20260904214539 81 105 1.0 4.0 0.00 1.92 1.89 77 1013.7
20260904214023 83 0 1.0 4.0 0.00 1.92 1.89 75 1013.6
20260904213522 84 293 2.0 4.0 0.00 1.92 1.89 71 1013.6
20260904213042 83 146 1.0 2.0 0.00 1.92 1.89 70 1013.5
20260904212518 84 5 1.0 2.0 0.00 1.92 1.89 72 1013.5
20260904212021 84 22 1.0 2.0 0.00 1.92 1.89 70 1013.4
20260904211542 85 53 1.0 3.0 0.00 1.92 1.89 70 1013.4
20260904211021 83 0 0.0 3.0 0.00 1.92 1.89 71 1013.4
20260904210521 83 243 1.0 3.0 0.00 1.92 1.89 71 1013.5
20260904210038 82 287 2.0 3.0 0.00 1.92 1.89 71 1013.5
20260904205521 82 247 1.0 2.0 0.00 1.92 1.89 72 1013.5
20260904205020 82 295 1.0 3.0 0.00 1.92 1.89 72 1013.4
20260904204540 82 261 2.0 4.0 0.00 1.92 1.89 72 1013.4
20260904204018 82 244 1.0 4.0 0.00 1.92 1.89 71 1013.4
20260904203519 82 297 2.0 5.0 0.00 1.92 1.89 71 1013.3
20260904203038 82 313 1.0 8.0 0.00 1.92 1.89 73 1013.4
20260904202525 81 311 2.0 8.0 0.00 1.92 1.89 74 1013.4
20260904202020 82 313 3.0 8.0 0.00 1.92 1.89 73 1013.5
20260904201538 82 222 3.0 4.0 0.00 1.92 1.89 72 1013.5
20260904201022 82 248 2.0 6.0 0.00 1.92 1.89 73 1013.5
20260904200520 82 312 2.0 9.0 0.00 1.92 1.89 72 1013.4
20260904200040 82 282 4.0 10.0 0.00 1.92 1.89 71 1013.4
20260904195524 82 263 5.0 10.0 0.00 1.92 1.89 71 1013.6
20260904195018 83 280 4.0 7.0 0.00 1.92 1.89 71 1013.5
20260904194541 83 180 1.0 6.0 0.00 1.92 1.89 73 1013.5
20260904194016 82 180 1.0 7.0 0.00 1.92 1.89 74 1013.5
20260904193516 81 208 4.0 7.0 0.00 1.92 1.89 76 1013.6
20260904193039 81 250 3.0 8.0 0.00 1.92 1.89 75 1013.7
20260904192521 81 284 3.0 8.0 0.00 1.92 1.89 76 1013.6
20260904192024 81 213 2.0 7.0 0.00 1.92 1.89 76 1013.6
20260904191538 81 270 3.0 9.0 0.00 1.92 1.89 75 1013.6
20260904191023 81 246 3.0 9.0 0.00 1.92 1.89 76 1013.6
20260904190522 81 250 2.0 12.0 0.00 1.92 1.89 76 1013.7
20260904190035 80 243 6.0 12.0 0.00 1.92 1.89 76 1013.9
20260904185516 80 235 5.0 13.0 0.00 1.92 1.89 76 1013.7
20260904185019 80 284 4.0 13.0 0.00 1.92 1.89 78 1013.8
20260904184541 79 209 5.0 14.0 0.00 1.92 1.89 79 1013.8
20260904184018 79 286 6.0 14.0 0.00 1.92 1.89 79 1013.8
20260904183518 78 189 5.0 12.0 0.00 1.92 1.89 81 1014.0
20260904183040 78 234 4.0 11.0 0.00 1.92 1.89 82 1014.1
20260904182520 77 203 6.0 11.0 0.00 1.92 1.89 82 1014.0
20260904182024 77 271 5.0 11.0 0.00 1.92 1.89 83 1014.0
20260904181539 76 227 4.0 13.0 0.00 1.92 1.89 83 1014.0
20260904181023 76 279 7.0 13.0 0.00 1.92 1.89 84 1014.2
20260904180526 76 193 4.0 13.0 0.00 1.92 1.89 85 1014.2
20260904180050 75 211 6.0 13.0 0.00 1.92 1.89 86 1014.1
20260904175518 75 269 4.0 10.0 0.00 1.92 1.89 85 1014.1
20260904175019 75 267 5.0 10.0 0.00 1.92 1.89 87 1013.9
20260904174543 74 250 6.0 9.0 0.00 1.92 1.89 88 1013.9
20260904174021 73 225 3.0 7.0 0.00 1.92 1.89 87 1013.6
20260904173517 73 218 3.0 8.0 0.00 1.92 1.89 89 1013.8
20260904173041 73 290 3.0 8.0 0.00 1.92 1.89 91 1014.0
20260904172519 72 247 4.0 9.0 0.00 1.92 1.89 90 1014.0
20260904172019 72 215 2.0 8.0 0.00 1.92 1.89 91 1014.1
20260904171605 71 220 4.0 8.0 0.00 1.92 1.89 92 1014.2
20260904171019 71 247 2.0 8.0 0.00 1.92 1.89 94 1014.3
20260904170519 70 221 2.0 8.0 0.00 1.92 1.89 94 1014.3
20260904170041 70 247 4.0 8.0 0.00 1.92 1.89 93 1014.2
20260904165524 69 176 2.0 5.0 0.00 1.93 1.89 94 1014.2
20260904165020 69 216 2.0 5.0 0.00 1.93 1.89 94 1014.5
20260904164539 69 195 2.0 5.0 0.00 1.93 1.89 95 1014.6
20260904164019 68 188 2.0 5.0 0.00 1.93 1.89 95 1014.6
20260904163520 68 188 2.0 6.0 0.00 1.93 1.89 95 1014.8
20260904163038 68 196 1.0 6.0 0.00 1.93 1.89 95 1014.9
20260904162519 67 235 3.0 6.0 0.00 1.93 1.89 95 1014.9
20260904162021 67 269 2.0 4.0 0.00 1.93 1.89 95 1014.8
20260904161551 67 206 1.0 4.0 0.00 1.93 1.89 95 1014.6
20260904161016 67 155 2.0 4.0 0.00 1.93 1.89 95 1014.5
20260904160516 67 166 1.0 4.0 0.00 1.93 1.89 95 1014.6
20260904160041 67 164 1.0 4.0 0.00 1.93 1.89 95 1014.9
20260904155528 67 157 2.0 5.0 0.00 1.93 1.89 95 1015.0
20260904155021 67 156 2.0 5.0 0.00 1.93 1.89 95 1014.9
20260904154543 67 188 1.0 3.0 0.00 1.93 1.89 95 1015.2
20260904154025 67 212 2.0 4.0 0.00 1.93 1.89 95 1015.6
20260904153522 67 188 1.0 5.0 0.00 1.93 1.89 95 1015.8
20260904153050 67 240 1.0 7.0 0.01 1.93 1.89 95 1015.5
20260904152519 67 213 2.0 7.0 0.01 1.93 1.89 95 1015.4
20260904152017 67 193 2.0 7.0 0.01 1.93 1.89 95 1015.3
20260904151535 67 150 3.0 6.0 0.01 1.93 1.89 95 1015.1
20260904151018 67 159 2.0 4.0 0.02 1.93 1.89 95 1015.1
20260904150518 67 231 1.0 4.0 0.02 1.93 1.89 94 1015.5
20260904150039 67 123 1.0 9.0 0.02 1.93 1.89 94 1015.2
20260904145518 67 169 3.0 9.0 0.03 1.95 1.89 94 1015.2
20260904145022 67 170 5.0 8.0 0.03 1.95 1.89 94 1015.3
20260904144537 66 139 2.0 10.0 0.03 1.95 1.89 94 1015.5
20260904144024 66 154 3.0 12.0 0.04 1.95 1.89 94 1015.2
20260904143520 66 139 6.0 12.0 0.05 1.95 1.89 94 1015.3
20260904143036 66 199 5.0 14.0 0.05 1.94 1.88 94 1015.7
20260904142519 66 155 7.0 14.0 0.07 1.94 1.88 94 1015.7
20260904142019 66 161 6.0 14.0 0.14 1.94 1.88 94 1016.0
20260904141538 66 183 3.0 9.0 0.19 1.94 1.88 94 1016.3
20260904141019 66 160 2.0 8.0 0.19 1.93 1.87 94 1016.6
20260904140516 66 153 5.0 9.0 0.20 1.93 1.87 94 1016.3
20260904140040 66 168 5.0 15.0 0.29 1.93 1.87 94 1016.2
20260904135527 66 155 5.0 16.0 0.43 1.93 1.86 94 1016.1
20260904135019 66 163 7.0 16.0 0.56 1.93 1.86 94 1015.9
20260904134549 66 159 7.0 15.0 0.79 1.92 1.85 94 1015.9
20260904134020 66 171 6.0 10.0 0.94 1.92 1.85 94 1015.8
20260904133518 66 180 6.0 10.0 0.93 1.91 1.84 94 1016.2
20260904133055 66 163 1.0 10.0 0.92 1.90 1.83 94 1017.4
20260904132523 66 162 4.0 10.0 0.89 1.86 1.79 94 1017.1
20260904132021 66 149 5.0 10.0 0.82 1.79 1.72 94 1016.8
20260904131538 66 139 5.0 8.0 0.78 1.75 1.68 94 1017.2
20260904131019 66 133 2.0 9.0 0.78 1.75 1.68 94 1017.1
20260904130522 66 145 5.0 10.0 0.76 1.73 1.66 94 1016.8
20260904130042 66 95 4.0 10.0 0.67 1.64 1.57 93 1017.5
20260904125519 66 159 3.0 11.0 0.50 1.47 1.40 93 1017.7
20260904125019 67 71 4.0 18.0 0.39 1.36 1.29 93 1017.8
20260904124542 67 313 8.0 18.0 0.12 1.09 1.02 93 1017.9
20260904124017 67 341 8.0 18.0 0.01 0.98 0.91 93 1017.3
20260904123522 67 16 3.0 14.0 0.01 0.98 0.91 93 1016.1
20260904123038 67 89 4.0 9.0 0.01 0.98 0.91 93 1015.8
20260904122523 67 71 6.0 9.0 0.00 0.97 0.90 93 1016.8
20260904122019 67 32 2.0 11.0 0.00 0.97 0.90 93 1016.3
20260904121542 67 144 3.0 11.0 0.00 0.97 0.90 93 1015.4
20260904121017 67 148 5.0 16.0 0.00 0.97 0.90 93 1015.4
20260904120519 67 82 3.0 16.0 0.00 0.97 0.90 92 1015.4
20260904120054 67 9 5.0 16.0 0.00 0.97 0.90 92 1015.3
20260904115521 67 170 4.0 12.0 0.00 0.97 0.90 92 1015.8
20260904115024 67 58 2.0 9.0 0.00 0.97 0.90 92 1016.0
20260904114538 67 113 4.0 14.0 0.00 0.97 0.90 92 1015.7
20260904114021 67 105 7.0 14.0 0.00 0.97 0.90 92 1016.2
20260904113522 67 39 7.0 14.0 0.00 0.97 0.90 92 1016.0
20260904113041 67 88 4.0 14.0 0.00 0.97 0.90 93 1016.1
20260904112523 67 93 5.0 14.0 0.00 0.97 0.90 93 1015.8
20260904112021 66 23 4.0 12.0 0.00 0.97 0.90 94 1015.5
20260904111537 66 71 3.0 13.0 0.00 0.97 0.90 94 1015.3
20260904111018 66 80 4.0 13.0 0.00 0.97 0.90 94 1015.3
20260904110520 66 56 5.0 14.0 0.06 0.97 0.90 94 1015.5
20260904110042 66 98 6.0 17.0 0.08 0.97 0.90 94 1015.7
20260904105521 66 74 5.0 17.0 0.08 0.97 0.90 94 1015.7
20260904105023 66 62 6.0 17.0 0.09 0.97 0.90 94 1015.8
20260904104617 66 67 5.0 10.0 0.16 0.97 0.90 94 1015.4
20260904104028 66 67 3.0 8.0 0.39 0.97 0.90 93 1015.0
20260904103523 66 51 4.0 10.0 0.41 0.97 0.90 93 1014.7
20260904103038 66 129 3.0 10.0 0.41 0.97 0.90 93 1014.5
20260904102524 66 38 2.0 6.0 0.41 0.97 0.90 93 1014.5
20260904102025 66 158 1.0 10.0 0.41 0.97 0.90 93 1014.2
20260904101546 66 0 3.0 10.0 0.41 0.97 0.90 93 1014.3
20260904101019 66 127 4.0 10.0 0.44 0.97 0.90 93 1014.2
20260904100517 67 65 2.0 10.0 0.46 0.90 0.83 94 1014.6
20260904100056 67 188 4.0 15.0 0.47 0.89 0.82 94 1014.0
20260904095521 67 60 5.0 15.0 0.47 0.89 0.82 94 1013.8